Stations météo

réclame
Mon MeteoGroup
Ahaus, Allemagne (10309): Température de l'air & dewpoint: 12.11.2019 00:00:00 - 18.11.2019 00:00:00 (CET)Ahaus, Allemagne (10309): Température de l'air 5cm & Température de l'air -5cm: 12.11.2019 00:00:00 - 18.11.2019 00:00:00 (CET)Ahaus, Allemagne (10309): Température de l'air -20cm & Température de l'air -100cm: 12.11.2019 00:00:00 - 18.11.2019 00:00:00 (CET)Ahaus, Allemagne (10309): Vitesse du vent & gusts: 12.11.2019 00:00:00 - 18.11.2019 00:00:00 (CET)Ahaus, Allemagne (10309): Direction du vent: 12.11.2019 00:00:00 - 18.11.2019 00:00:00 (CET)Ahaus, Allemagne (10309): reduced air pressure: 12.11.2019 00:00:00 - 18.11.2019 00:00:00 (CET)Ahaus, Allemagne (10309): visibility: 12.11.2019 00:00:00 - 18.11.2019 00:00:00 (CET)Ahaus, Allemagne (10309): Ensoleillement: 12.11.2019 00:00:00 - 18.11.2019 00:00:00 (CET)Ahaus, Allemagne (10309): Quantités de précipitations: 12.11.2019 00:00:00 - 18.11.2019 00:00:00 (CET)
Date & Time tt [°C] td [°C] tt 5cm [°C] tt -5cm [°C] tt -20cm [°C] tt -100cm [°C] ff [km/h] ff [knt] fx [km/h] fx [knt] dd ppp [hPa] vv [km] sd [min] rr [mm]
18.11.2019 00:00:00 4,0 3,3 3,6 3,7 4,3 9,2 23 13 37 20 N 1007,4 3,5 0 1,9
17.11.2019 23:00:00 3,9 3,0 3,4 3,7 4,2 9,2 23 12 35 19 N 1007,7 3,5 0 1,2
17.11.2019 22:00:00 3,9 2,9 3,3 3,6 4,2 9,2 21 11 31 17 N 1008,6 3,8 0 1,3
17.11.2019 21:00:00 3,9 2,6 3,3 3,6 4,2 9,2 16 9 24 13 N 1009,4 3,9 0 0,6
17.11.2019 20:00:00 4,0 2,5 3,4 3,5 4,2 9,2 15 8 21 11 NNE 1009,8 6 0 0,0
17.11.2019 19:00:00 3,8 2,4 3,4 3,5 4,1 9,2 16 9 23 13 NNE 1010,1 5 0 0,0
17.11.2019 18:00:00 3,8 2,3 3,2 3,5 4,1 9,2 14 7 22 12 NNE 1010,4 6 0 0,0
17.11.2019 17:00:00 3,6 2,5 3,0 3,6 4,1 9,3 13 7 22 12 NNE 1010,6 5 0 0,0
17.11.2019 16:00:00 3,9 2,4 3,4 3,9 3,9 9,3 16 9 22 12 N 1010,9 6 0 0,0
17.11.2019 15:00:00 4,3 2,7 4,0 4,0 3,8 9,3 11 6 16 9 N 1011,7 6 0 0,0
17.11.2019 14:00:00 4,0 2,2 4,0 3,8 3,6 9,3 11 6 16 9 NNE 1011,8 7 0 0,0
17.11.2019 13:00:00 3,7 1,8 3,8 3,3 3,4 9,3 11 6 16 9 NE 1012,1 8 0 0,0
17.11.2019 12:00:00 2,9 1,4 3,2 2,0 3,4 9,3 10 5 14 8 NE 1012,7 7 0 0,0
17.11.2019 11:00:00 1,3 0,6 1,2 1,1 3,4 9,3 10 5 12 6 ENE 1013,4 3,9 0 0,0
17.11.2019 10:00:00 0,0 -0,4 -0,4 1,1 3,5 9,3 9 5 14 7 E 1013,4 2,4 0 0,0
17.11.2019 09:00:00 -0,7 -0,7 -2,0 1,1 3,6 9,3 11 6 14 8 ENE 1013,2 2,0 0 0,0
17.11.2019 08:00:00 -1,5 -1,5 -3,9 1,2 3,7 9,3 8 5 22 12 ENE 1013,2 1,2 0 0,0
17.11.2019 07:00:00 -0,7 -0,9 -4,0 1,3 3,8 9,3 8 4 13 7 E 1012,9 2,1 0 0,0
17.11.2019 06:00:00 -0,6 -0,6 -2,7 1,3 3,9 9,3 11 6 13 7 ESE 1012,4 2,4 0 0,0
17.11.2019 05:00:00 -0,4 -0,5 -3,1 1,4 4,1 9,3 8 4 13 7 E 1012,1 3,0 0 0,0
17.11.2019 04:00:00 0,5 -0,2 -3,3 1,5 4,2 9,3 9 5 13 7 SSE 1012,5 4,8 0 0,0
17.11.2019 03:00:00 2,1 1,2 -1,7 2,0 4,3 9,4 10 6 16 8 S 1012,8 10 0 0,0
17.11.2019 02:00:00 3,5 1,7 0,0 2,7 4,4 9,4 10 5 19 11 S 1012,2 13 0 0,0
17.11.2019 01:00:00 4,1 2,0 3,4 2,7 4,4 9,4 15 8 20 11 S 1012,2 15 0 0,0
17.11.2019 00:00:00 3,4 1,4 2,0 2,6 4,5 9,4 11 6 21 12 SSE 1011,7 16 0 0,0
16.11.2019 23:00:00 4,2 1,3 2,7 2,4 4,6 9,4 14 8 25 14 S 1011,6 20 0 0,0
16.11.2019 22:00:00 4,6 1,4 2,6 2,5 4,8 9,4 18 10 25 14 S 1011,5 21 0 0,0
16.11.2019 21:00:00 3,9 1,5 1,7 2,7 4,9 9,4 14 7 18 10 S 1011,4 21 0 0,0
16.11.2019 20:00:00 3,7 1,8 1,3 2,9 5,1 9,4 11 6 16 9 S 1010,9 17 0 0,0
16.11.2019 19:00:00 4,2 2,0 -0,3 3,3 5,2 9,4 10 6 16 8 S 1010,1 20 0 0,0
16.11.2019 18:00:00 3,9 2,0 0,4 3,9 5,3 9,4 10 5 14 7 S 1009,8 15 0 0,0
16.11.2019 17:00:00 4,3 2,2 1,1 4,7 5,3 9,4 10 5 17 9 S 1009,2 17 0 0,0
16.11.2019 16:00:00 5,5 2,7 4,5 5,5 5,3 9,4 12 7 17 9 S 1008,6 16 0 0,0
16.11.2019 15:00:00 5,7 3,0 5,5 5,8 5,1 9,5 11 6 22 12 SSW 1008,6 22 0 0,0
16.11.2019 14:00:00 5,4 2,6 5,8 5,5 5,0 9,5 17 9 26 14 SSW 1008,4 17 0 0,0
16.11.2019 13:00:00 5,3 3,1 5,4 5,2 4,9 9,5 16 9 22 12 SSW 1008,1 15 0 0,0
16.11.2019 12:00:00 5,2 2,7 5,2 5,0 4,7 9,5 16 9 22 12 SW 1007,8 17 0 0,0
16.11.2019 11:00:00 4,7 2,2 4,9 4,5 4,7 9,5 13 7 18 10 SW 1007,9 13 0 0,0
16.11.2019 10:00:00 4,0 2,4 3,4 3,9 4,6 9,5 9 5 13 7 SW 1007,5 8 0 0,0
16.11.2019 09:00:00 3,5 2,4 2,9 3,5 4,6 9,5 10 6 13 7 S 1007,5 8 0 0,0
16.11.2019 08:00:00 3,1 2,6 2,4 3,5 4,7 9,5 11 6 13 7 SW 1006,8 6 0 0,0
16.11.2019 07:00:00 3,0 2,7 1,9 3,6 4,7 9,5 8 4 22 12 SSW 1006,3 4,5 0 0,0
16.11.2019 06:00:00 3,3 2,7 2,6 3,6 4,7 9,5 8 4 26 14 ESE 1005,8 4,3 0 0,0
16.11.2019 05:00:00 3,7 2,9 3,0 3,6 4,6 9,5 8 5 16 8 SW 1005,2 5 0 0,0
16.11.2019 04:00:00 3,8 2,8 3,1 3,5 4,7 9,5 11 6 15 8 SW 1005,4 6 0 0,0
16.11.2019 03:00:00 3,2 2,9 2,5 3,4 4,7 9,6 10 5 13 7 WSW 1005,4 4,1 0 0,0
16.11.2019 02:00:00 2,6 2,6 1,9 3,4 4,7 9,6 9 5 13 7 NE 1005,3 2,2 0 0,0
16.11.2019 01:00:00 2,9 2,9 1,8 3,4 4,7 9,6 8 4 12 6 SSW 1005,7 2,4 0 0,0
16.11.2019 00:00:00 2,5 2,5 2,3 3,2 4,8 9,6 8 4 29 15 NE 1005,0 1,4 0 0,0
15.11.2019 23:00:00 2,1 2,1 0,8 3,2 4,9 9,6 8 4 24 13 N 1004,9 1,6 0 0,0
15.11.2019 22:00:00 1,8 1,8 0,3 3,3 5,0 9,6 7 4 28 15 SE 1004,9 1,0 0 0,0
15.11.2019 21:00:00 2,9 2,5 0,3 3,7 5,1 9,6 8 4 26 14 E 1004,3 2,8 0 0,0
15.11.2019 20:00:00 2,9 2,8 1,5 3,7 5,2 9,6 9 5 12 7 ESE 1004,3 2,5 0 0,0
15.11.2019 19:00:00 4,0 3,2 0,9 4,1 5,2 9,6 10 5 14 7 E 1003,2 3,4 0 0,0
15.11.2019 18:00:00 3,9 3,2 2,0 4,3 5,2 9,6 8 4 11 6 E 1003,3 4,3 0 0,0
15.11.2019 17:00:00 5,2 3,5 2,7 4,9 5,2 9,6 8 4 14 8 E 1001,9 6 0 0,0
15.11.2019 16:00:00 5,9 3,5 5,2 5,3 5,1 9,7 12 7 25 14 E 1001,4 7 0 0,0
15.11.2019 15:00:00 6,1 3,3 5,8 5,3 5,0 9,7 13 7 29 16 E 1001,6 7 0 0,0
15.11.2019 14:00:00 6,1 3,0 6,1 5,3 4,8 9,7 16 9 33 18 E 1001,5 8 0 0,0
15.11.2019 13:00:00 5,8 2,7 6,1 5,0 4,7 9,7 20 11 34 18 E 1001,2 7 0 0,0
15.11.2019 12:00:00 5,4 2,5 5,5 4,6 4,5 9,7 19 10 36 20 E 1001,6 7 0 0,0
15.11.2019 11:00:00 5,1 2,2 5,3 4,0 4,4 9,7 23 12 35 19 ENE 1000,9 7 0 0,0
15.11.2019 10:00:00 4,5 1,9 4,4 3,3 4,3 9,7 20 11 33 18 ENE 1001,6 7 0 0,0
15.11.2019 09:00:00 3,8 1,2 3,4 2,7 4,4 9,7 20 11 29 15 ENE 1001,6 7 0 0,0
15.11.2019 08:00:00 3,4 0,9 2,0 2,5 4,4 9,7 18 10 32 18 NE 1001,0 8 0 0,0
15.11.2019 07:00:00 3,5 0,7 2,2 2,6 4,5 9,7 22 12 34 18 ENE 1001,3 9 0 0,0
15.11.2019 06:00:00 2,8 1,2 2,2 2,4 4,6 9,7 17 9 26 14 NE 1001,9 6 0 0,0
15.11.2019 05:00:00 2,1 0,9 0,8 2,1 4,7 9,7 13 7 25 13 NE 1002,6 6 0 0,0
15.11.2019 04:00:00 2,1 1,1 0,4 2,3 4,8 9,7 16 9 27 15 NE 1002,5 5 0 0,0
15.11.2019 03:00:00 2,5 1,3 0,8 2,7 5,0 9,7 16 9 24 13 NE 1003,3 6 0 0,0
15.11.2019 02:00:00 3,3 1,5 1,6 3,1 5,1 9,8 14 8 24 13 NE 1003,7 8 0 0,0
15.11.2019 01:00:00 3,9 1,7 2,6 3,2 5,2 9,8 13 7 20 11 NE 1004,3 12 0 0,0
15.11.2019 00:00:00 4,0 1,6 2,1 3,3 5,3 9,8 13 7 19 10 NE 1004,3 13 0 0,0
14.11.2019 23:00:00 4,3 1,9 2,6 3,4 5,4 9,8 13 7 18 10 ENE 1004,7 14 0 0,0
14.11.2019 22:00:00 4,5 1,8 2,6 3,7 5,5 9,8 10 5 18 10 E 1004,9 18 0 0,0
14.11.2019 21:00:00 5,0 1,8 2,6 4,0 5,6 9,8 11 6 21 11 E 1004,9 19 0 0,0
14.11.2019 20:00:00 5,8 2,2 4,0 4,4 5,7 9,8 13 7 19 11 E 1004,7 22 0 0,0
14.11.2019 19:00:00 6,0 2,4 4,3 4,8 5,8 9,8 11 6 23 13 E 1004,5 23 0 0,0
14.11.2019 18:00:00 6,6 2,7 5,2 5,3 5,8 9,8 15 8 26 14 E 1004,0 25 0 0,0
14.11.2019 17:00:00 6,9 2,9 5,9 5,5 5,8 9,8 14 8 27 14 E 1003,9 29 0 0,0
14.11.2019 16:00:00 7,4 2,9 6,4 6,2 5,7 9,8 16 8 25 13 E 1003,1 32 0 0,0
14.11.2019 15:00:00 8,0 2,9 7,5 6,4 5,5 9,8 13 7 28 15 E 1003,2 40 0 0,0
14.11.2019 14:00:00 7,7 3,2 7,6 6,4 5,3 9,8 17 9 31 17 ESE 1003,1 35 24 0,0
14.11.2019 13:00:00 6,9 2,8 6,8 5,7 5,0 9,8 22 12 36 20 SE 1003,2 27 0 0,0
14.11.2019 12:00:00 6,7 2,5 6,6 5,4 4,8 9,9 23 13 36 19 ESE 1003,0 24 21 0,0
14.11.2019 11:00:00 6,0 2,6 6,3 4,3 4,8 9,9 21 11 29 16 ESE 1003,3 23 26 0,0
14.11.2019 10:00:00 4,7 2,3 4,0 3,2 4,8 9,9 20 11 26 14 ESE 1003,1 21 0 0,0
14.11.2019 09:00:00 3,7 2,3 2,8 2,7 4,9 9,9 15 8 21 12 ESE 1003,0 15 0 0,0
14.11.2019 08:00:00 3,2 2,0 1,8 2,5 5,0 9,9 16 9 23 12 ESE 1002,3 13 0 0,0
14.11.2019 07:00:00 3,0 1,9 1,1 2,7 5,2 9,9 15 8 24 13 ESE 1001,5 13 0 0,0
14.11.2019 06:00:00 3,5 2,4 2,1 3,0 5,3 9,9 18 10 28 15 SE 1001,4 14 0 0,0
14.11.2019 05:00:00 3,6 2,5 2,1 3,3 5,4 9,9 17 9 26 14 SE 1000,9 14 0 0,0
14.11.2019 04:00:00 3,5 2,7 2,1 3,7 5,5 9,9 16 9 25 13 SE 1001,0 9 0 0,0
14.11.2019 03:00:00 4,2 3,3 3,3 4,0 5,6 9,9 18 10 26 14 SSE 1001,2 9 0 0,0
14.11.2019 02:00:00 4,1 3,4 3,5 3,8 5,7 9,9 16 9 23 12 SSE 1001,0 9 0 0,0
14.11.2019 01:00:00 3,7 3,2 2,6 4,0 5,9 9,9 16 9 22 12 SE 1001,1 7 0 0,0
14.11.2019 00:00:00 4,6 3,5 3,2 4,5 6,0 9,9 18 10 26 14 SSE 1001,3 12 0 0,0
13.11.2019 23:00:00 5,2 4,1 3,8 5,0 6,0 10,0 17 9 26 14 S 1001,4 13 0 0,0
13.11.2019 22:00:00 5,9 4,4 4,9 5,3 6,1 10,0 14 8 22 12 S 1001,5 18 0 0,0
13.11.2019 21:00:00 5,4 4,6 4,8 5,3 6,1 10,0 13 7 22 12 S 1001,5 14 0 0,0
13.11.2019 20:00:00 5,5 4,6 4,5 5,5 6,2 10,0 13 7 22 12 S 1001,6 15 0 0,1
13.11.2019 19:00:00 6,0 5,2 5,4 5,7 6,2 10,0 15 8 24 13 S 1001,5 10 0 0,1
13.11.2019 18:00:00 6,3 5,3 5,7 5,6 6,3 10,0 16 9 21 11 SSW 1001,4 10 0 0,0
13.11.2019 17:00:00 5,8 4,3 4,1 6,2 6,2 10,0 12 7 16 9 SSW 1000,8 22 0 0,0
13.11.2019 16:00:00 7,2 4,3 5,6 7,1 6,1 10,0 11 6 23 12 W 1000,6 58 8 0,0
13.11.2019 15:00:00 7,8 6,1 7,3 7,3 5,9 10,0 16 9 30 16 SW 1000,3 13 3 0,1
13.11.2019 14:00:00 7,7 5,7 8,0 7,2 5,6 10,0 22 12 37 20 SW 1000,0 12 1 0,0
13.11.2019 13:00:00 8,0 6,1 9,1 6,9 5,4 10,1 20 11 36 20 SW 999,6 10 14 0,1
13.11.2019 12:00:00 6,4 5,6 6,0 5,9 5,2 10,1 26 14 37 20 SSW 999,7 6 2 0,6
13.11.2019 11:00:00 5,7 5,0 5,4 5,2 5,1 10,1 23 12 36 19 SSW 999,8 4,8 0 0,2
13.11.2019 10:00:00 5,3 4,2 5,3 4,7 5,0 10,1 22 12 35 19 S 999,4 7 0 0,0
13.11.2019 09:00:00 5,0 3,9 4,8 4,3 5,0 10,1 26 14 38 21 SSW 999,1 8 0 0,0
13.11.2019 08:00:00 4,7 3,5 4,5 4,1 4,9 10,1 24 13 38 20 SSW 998,6 11 0 0,0
13.11.2019 07:00:00 4,5 3,0 4,2 4,0 4,9 10,1 27 15 41 22 SSW 998,1 15 0 0,0
13.11.2019 06:00:00 4,3 2,7 3,9 3,8 4,9 10,1 28 15 40 22 SSW 998,0 17 0 0,0
13.11.2019 05:00:00 3,9 2,4 3,4 3,6 4,9 10,1 28 15 41 22 SSW 997,6 19 0 0,0
13.11.2019 04:00:00 3,9 2,3 3,1 3,5 4,9 10,1 26 14 41 22 S 998,1 21 0 1,7
13.11.2019 03:00:00 4,4 1,4 3,5 3,3 4,9 10,1 26 14 39 21 S 998,9 21 0 0,0
13.11.2019 02:00:00 3,9 1,2 3,4 2,9 5,0 10,1 23 13 41 22 S 998,9 27 0 0,0
13.11.2019 01:00:00 3,1 1,0 1,8 2,6 5,1 10,1 24 13 35 19 S 999,0 26 0 0,0
13.11.2019 00:00:00 3,3 1,2 1,7 2,8 5,2 10,2 20 11 32 18 S 998,9 29 0 0,0
12.11.2019 23:00:00 3,4 1,4 1,9 3,0 5,4 10,2 19 10 34 18 S 999,5 29 0 0,0
12.11.2019 22:00:00 4,1 1,7 2,5 3,2 5,5 10,2 21 11 36 19 S 999,6 35 0 0,0
12.11.2019 21:00:00 4,2 1,8 2,7 3,3 5,7 10,2 22 12 32 18 S 999,8 30 0 0,0
12.11.2019 20:00:00 4,1 1,7 2,3 3,6 5,8 10,2 17 9 28 15 S 1000,3 34 0 0,0
12.11.2019 19:00:00 4,4 2,0 2,7 4,0 6,0 10,2 18 10 26 14 S 1000,3 29 0 0,0
12.11.2019 18:00:00 4,5 2,4 2,8 4,6 6,1 10,2 16 8 28 15 S 1000,5 37 0 0,0
12.11.2019 17:00:00 5,3 2,2 3,9 5,5 6,1 10,2 21 12 34 18 SSW 1000,2 38 0 0,0
12.11.2019 16:00:00 5,7 2,6 5,0 6,0 6,1 10,2 23 12 39 21 SSW 999,9 36 45 0,0
12.11.2019 15:00:00 6,0 3,2 6,5 6,2 6,0 10,3 24 13 37 20 SSW 999,8 29 23 0,0
12.11.2019 14:00:00 5,3 3,2 4,9 6,1 5,9 10,3 24 13 39 21 SSW 1000,2 51 0 0,1
12.11.2019 13:00:00 4,9 3,2 4,8 5,8 5,8 10,3 23 12 44 24 SSW 1000,3 26 0 0,3
12.11.2019 12:00:00 5,6 3,7 5,7 5,5 5,7 10,3 20 11 31 17 S 1000,5 19 0 0,0
12.11.2019 11:00:00 5,6 3,0 5,4 5,3 5,7 10,3 22 12 38 21 S 1000,7 34 0 0,0
12.11.2019 10:00:00 5,5 3,2 5,6 5,1 5,7 10,3 23 12 34 19 SSW 1001,0 33 0 0,0
12.11.2019 09:00:00 5,2 3,2 5,0 4,7 5,7 10,3 22 12 37 20 SSW 1001,2 32 0 0,0
12.11.2019 08:00:00 4,8 3,0 4,1 4,6 5,7 10,3 24 13 41 22 SSW 1001,1 31 0 0,0
12.11.2019 07:00:00 4,7 2,7 4,3 4,6 5,7 10,3 29 15 43 23 SSW 1001,1 30 0 0,0
12.11.2019 06:00:00 4,8 2,9 4,5 4,8 5,8 10,4 26 14 46 25 SSW 1000,9 25 0 0,0
12.11.2019 05:00:00 5,0 3,2 4,7 5,0 5,8 10,4 27 15 40 22 SSW 1001,1 23 0 0,0
12.11.2019 04:00:00 5,3 3,5 5,0 5,0 5,8 10,4 27 14 36 20 SSW 1001,1 20 0 0,0
12.11.2019 03:00:00 5,3 3,9 4,8 4,9 5,8 10,4 23 13 41 22 SSW 1001,4 12 0 0,0
12.11.2019 02:00:00 5,4 4,0 4,8 4,9 5,8 10,4 24 13 36 19 SSW 1001,4 14 0 0,1
12.11.2019 01:00:00 5,4 3,7 4,5 5,0 5,8 10,4 26 14 37 20 SSW 1001,6 23 0 0,0
12.11.2019 00:00:00 5,6 4,2 4,6 5,2 5,8 10,4 23 12 31 17 SSW 1001,5 17 0 0,1

tt = Température de l'air
td = dewpoint
tt 5cm = Température de l'air 5cm
tt -5cm = Température de l'air -5cm
tt -20cm = Température de l'air -20cm
tt -100cm = Température de l'air -100cm
ff = Vitesse du vent
fx = gusts
dd = Direction du vent
ppp = reduced air pressure
vv = visibility
sd = Ensoleillement
rr = Quantités de précipitations

stations d'obs. à proximité